Regional Weather Roundup
Issued by NWS

Home | Current Version | Previous Version | Text Only | Print | Product List | Glossary Off
Versions: 1 2 3 4 5 6 7 8 9 10 11 12 13 14 15 16 17 18 19 20 21 22 23 24 25 26 27 28 29 30 31 32 33 34 35 36 37 38 39 40 41 42 43 44 45 46 47 48 49 50

000
ASUS43 KOAX 191502
RWRNE

WEATHER ROUNDUP FOR NEBRASKA
NATIONAL WEATHER SERVICE OMAHA NE
1000 AM CDT SAT APR 19 2014

NOTES: SATELLITE DATA IS BEING USED TO AUGMENT CLOUD COVER ABOVE
       12000 FEET.
       "FAIR" INDICATES FEW OR NO CLOUDS BELOW 12,000 FEET WITH NO
       SIGNIFICANT WEATHER AND/OR OBSTRUCTIONS TO VISIBILITY.

  * THESE STATIONS DO NOT REPORT WEATHER SUCH AS RAIN...SNOW OR FOG.

NEZ001>004-019>022-054>056-191600-
NEBRASKA PANHANDLE

CITY           SKY/WX    TMP DP  RH WIND       PRES   REMARKS
SCOTTSBLUFF    CLOUDY    50  34  54 E8        30.06R
ALLIANCE       CLOUDY    49  31  49 NE15      30.04R
CHADRON        CLOUDY    51  30  44 CALM      30.05R
KIMBALL        CLOUDY    47  33  57 NE14      30.04R
SIDNEY         CLOUDY    50  34  54 NE18      30.04R
$$

NEZ057>060-069>072-079>082-191600-
SOUTHWEST NEBRASKA

CITY           SKY/WX    TMP DP  RH WIND       PRES   REMARKS
NORTH PLATTE   PTSUNNY   56  45  66 N12       29.98R
IMPERIAL       PTSUNNY   57  45  64 N15       29.95R
LEXINGTON      PTSUNNY   56  49  75 SE5       29.96S
MCCOOK         PTSUNNY   57  47  69 E3        29.93S
OGALLALA       PTSUNNY   55  37  50 NE23      30.00R
$$

NEZ005>010-023>029-035>040-094-191600-
NORTH CENTRAL NEBRASKA

CITY           SKY/WX    TMP DP  RH WIND       PRES   REMARKS
VALENTINE      CLOUDY    53  31  42 N15       30.03R
AINSWORTH      PTSUNNY   55  36  48 N14       30.01S
BROKEN BOW     PTSUNNY   56  47  71 SW5       29.97S
O`NEILL        PTSUNNY   59  41  50 NE9       29.99S
ORD            MOSUNNY   58  47  66 SW5       29.98R
THEDFORD       CLOUDY    55  36  50 N13       30.03R
$$

NEZ041-046>049-061>064-073>077-083>087-191600-
SOUTH CENTRAL NEBRASKA

CITY           SKY/WX    TMP DP  RH WIND       PRES   REMARKS
GRAND ISLAND   PTSUNNY   63  47  55 S20       29.99F
AURORA         MOSUNNY   64  47  54 S21G30    29.99F
HASTINGS       PTSUNNY   64  46  52 S14G21    29.98F
HEBRON         MOSUNNY   64  47  53 S20G28    30.01S
HOLDREGE       PTSUNNY   60  47  62 S14G21    29.95F
KEARNEY *      PTSUNNY   61  48  63 S17       29.97F
YORK           MOSUNNY   64  46  52 S23       30.01F
$$

NEZ011>018-030>034-042>045-191600-
NORTHEAST NEBRASKA

CITY           SKY/WX    TMP DP  RH WIND       PRES   REMARKS
NORFOLK        PTSUNNY   63  44  50 SW23G33   29.99F
ALBION         PTSUNNY   61  45  55 S13       30.00S
BLAIR          MOSUNNY   64  42  44 S18G25    30.06F
COLUMBUS *     PTSUNNY   63  45  51 S18G24    30.02S
FREMONT        MOSUNNY   65  43  44 S15G21    30.04F
TEKAMAH        MOSUNNY   68  43  40 S25       30.04F
$$

NEZ050>053-065>068-078-088>093-191600-
SOUTHEAST NEBRASKA

CITY           SKY/WX    TMP DP  RH WIND       PRES   REMARKS
LINCOLN        MOSUNNY   68  45  43 SW16      30.06R
OMAHA EPPLEY   PTSUNNY   64  42  44 SE16      30.08R
BEATRICE       MOSUNNY   67  46  47 S20G29    30.04S
FALLS CITY     PTSUNNY   66  43  43 S21G26    30.10S
NEBRASKA CITY  PTSUNNY   65  43  44 S18G25    30.09R
PLATTSMOUTH    MOSUNNY   65  40  40 S16G24    30.09R
$$

NEZ044-045-051>053-067-191600-
OMAHA AREA

CITY           SKY/WX    TMP DP  RH WIND       PRES   REMARKS
OMAHA EPPLEY   PTSUNNY   64  42  44 SE16      30.08R
BLAIR          MOSUNNY   64  42  44 S18G25    30.06F
FREMONT        MOSUNNY   65  43  44 S15G21    30.04F
MILLARD        MOSUNNY   64  44  46 S13       30.07F
OFFUTT AFB     MOSUNNY   66  44  45 SE16G23   30.08R
PLATTSMOUTH    MOSUNNY   65  40  40 S16G24    30.09R
WAHOO          FAIR      65  43  44 S18       30.04F
$$



USA.gov is the U.S. government's official web portal to all federal, state and local government web resources and services.